Weather History for Togiak, AK

Change the Weather History Date:

Saturday, November 24, 2012

  Actual Average Record
Temperature  
Mean Temperature 6 °F -  
Max Temperature 12 °F 26 °F 39 °F (2002)
Min Temperature 1 °F 17 °F -7 °F (1999)
Degree Days  
Heating Degree Days 58    
Moisture  
Dew Point 4 °F    
Average Humidity 82    
Maximum Humidity 92    
Minimum Humidity 73    
Precipitation  
Precipitation 0.00 in - - ()
Sea Level Pressure  
Sea Level Pressure 29.92 in    
Wind  
Wind Speed 7 mph (North)    
Max Wind Speed 10 mph    
Max Gust Speed -    
Visibility 10 miles    
Events      
Averages and records for this station are not official NWS values.
T = Trace of Precipitation, MM = Missing Value Source: NWS Daily Summary

Daily Weather History Graph

Daily Weather History Graph

Search for Another Location

Airport:

Trip Planner

Search our weather history database for the weather conditions in past years. The results will help you decide how hot, cold, wet, or windy it might be!

Date:

Astronomy

Nov. 24, 2012 Rise Set
Actual Time 9:56 AM AKST 5:00 PM AKST
Civil Twilight 9:06 AM AKST 5:50 PM AKST
Nautical Twilight 8:14 AM AKST 6:42 PM AKST
Astronomical Twilight 7:25 AM AKST 7:30 PM AKST
Moon 3:27 PM AKST (11/24) 5:43 AM AKST (11/24)
Length of Visible Light 8h 43m
Length of Day
7h 03m
Waxing Gibbous, 88% of the Moon is Illuminated
Nov 24
Waxing Gibbous
Nov 28
Full
Dec 6
Last Quarter
Dec 12
New
Dec 19
First Quarter

Hourly Weather History & Observations

Time (AKST) Temp. Windchill Dew Point Humidity Pressure Visibility Wind Dir Wind Speed Gust Speed Precip Events Conditions
12:16 AM 10.4 °F -0.4 °F 5.0 °F 79% 29.86 in 10.0 mi North 6.9 mph - N/A   Overcast
12:36 AM 10.4 °F -2.4 °F 5.0 °F 79% 29.86 in 10.0 mi North 9.2 mph - N/A   Overcast
12:56 AM 10.4 °F -0.4 °F 5.0 °F 79% 29.86 in 10.0 mi North 6.9 mph - N/A   Overcast
1:16 AM 10.4 °F -2.4 °F 5.0 °F 79% 29.86 in 10.0 mi North 9.2 mph - N/A   Overcast
1:36 AM 10.4 °F -2.4 °F 5.0 °F 79% 29.86 in 10.0 mi North 9.2 mph - N/A   Overcast
1:56 AM 10.4 °F -1.5 °F 3.2 °F 73% 29.86 in 10.0 mi North 8.1 mph - N/A   Overcast
2:16 AM 10.4 °F -2.4 °F 5.0 °F 79% 29.86 in 10.0 mi North 9.2 mph - N/A   Overcast
2:36 AM 10.4 °F -2.4 °F 5.0 °F 79% 29.87 in 10.0 mi North 9.2 mph - N/A   Overcast
3:16 AM 10.4 °F -1.5 °F 5.0 °F 79% 29.86 in 10.0 mi North 8.1 mph - N/A   Overcast
3:36 AM 10.4 °F -2.4 °F 5.0 °F 79% 29.86 in 10.0 mi North 9.2 mph - N/A   Overcast
3:56 AM 10.4 °F -2.4 °F 5.0 °F 79% 29.86 in 10.0 mi North 9.2 mph - N/A   Overcast
4:16 AM 10.4 °F -1.5 °F 5.0 °F 79% 29.87 in 10.0 mi North 8.1 mph - N/A   Overcast
4:36 AM 10.4 °F -0.4 °F 5.0 °F 79% 29.87 in 10.0 mi North 6.9 mph - N/A   Overcast
4:56 AM 10.4 °F -1.5 °F 5.0 °F 79% 29.87 in 10.0 mi North 8.1 mph - N/A   Overcast
5:16 AM 10.4 °F -0.4 °F 6.8 °F 85% 29.87 in 10.0 mi North 6.9 mph - N/A   Overcast
5:36 AM 10.4 °F -1.5 °F 5.0 °F 79% 29.87 in 10.0 mi NNE 8.1 mph - N/A   Overcast
5:56 AM 10.4 °F -3.3 °F 5.0 °F 79% 29.87 in 10.0 mi North 10.4 mph - N/A   Overcast
6:16 AM 10.4 °F 0.8 °F 5.0 °F 79% 29.87 in 10.0 mi NNE 5.8 mph - N/A   Scattered Clouds
6:36 AM 10.4 °F -0.4 °F 3.2 °F 73% 29.87 in 10.0 mi NNE 6.9 mph - N/A   Scattered Clouds
6:56 AM 8.6 °F -1.3 °F 3.2 °F 79% 29.87 in 10.0 mi North 5.8 mph - N/A   Partly Cloudy
7:16 AM 8.6 °F -1.3 °F 3.2 °F 79% 29.87 in 10.0 mi NNE 5.8 mph - N/A   Clear
7:36 AM 8.6 °F -1.3 °F 3.2 °F 79% 29.87 in 10.0 mi North 5.8 mph - N/A   Partly Cloudy
7:56 AM 6.8 °F -4.8 °F 3.2 °F 85% 29.88 in 10.0 mi North 6.9 mph - N/A   Clear
8:16 AM 6.8 °F -4.8 °F 3.2 °F 85% 29.88 in 10.0 mi North 6.9 mph - N/A   Clear
8:36 AM 6.8 °F -3.5 °F 3.2 °F 85% 29.89 in 10.0 mi North 5.8 mph - N/A   Clear
8:56 AM 6.8 °F -3.5 °F 1.4 °F 79% 29.89 in 10.0 mi NNW 5.8 mph - N/A   Clear
9:16 AM 6.8 °F -4.8 °F 1.4 °F 79% 29.89 in 10.0 mi North 6.9 mph - N/A   Clear
9:36 AM 6.8 °F -4.8 °F 1.4 °F 79% 29.89 in 10.0 mi North 6.9 mph - N/A   Clear
9:56 AM 6.8 °F -3.5 °F 3.2 °F 85% 29.89 in 10.0 mi North 5.8 mph - N/A   Clear
10:16 AM 6.8 °F -2.0 °F 3.2 °F 85% 29.90 in 10.0 mi North 4.6 mph - N/A   Clear
10:36 AM 6.8 °F -3.5 °F 3.2 °F 85% 29.91 in 10.0 mi North 5.8 mph - N/A   Clear
10:56 AM 6.8 °F -3.5 °F 3.2 °F 85% 29.91 in 10.0 mi North 5.8 mph - N/A   Clear
11:16 AM 6.8 °F -3.5 °F 1.4 °F 79% 29.91 in 10.0 mi North 5.8 mph - N/A   Clear
11:36 AM 6.8 °F -3.5 °F 1.4 °F 79% 29.91 in 10.0 mi North 5.8 mph - N/A   Clear
11:56 AM 6.8 °F -3.5 °F 3.2 °F 85% 29.92 in 10.0 mi North 5.8 mph - N/A   Clear
12:16 PM 8.6 °F 0.1 °F 6.8 °F 92% 29.92 in 10.0 mi North 4.6 mph - N/A   Clear
12:36 PM 8.6 °F 2.0 °F 3.2 °F 79% 29.92 in 10.0 mi North 3.5 mph - N/A   Clear
12:56 PM 10.4 °F 4.0 °F 6.8 °F 85% 29.92 in 10.0 mi North 3.5 mph - N/A   Clear
1:16 PM 10.4 °F 2.2 °F 6.8 °F 85% 29.91 in 10.0 mi NNE 4.6 mph - N/A   Clear
1:36 PM 10.4 °F 4.0 °F 3.2 °F 73% 29.91 in 10.0 mi NNE 3.5 mph - N/A   Clear
1:56 PM 12.2 °F 2.9 °F 5.0 °F 73% 29.92 in 10.0 mi NE 5.8 mph - N/A   Clear
2:16 PM 12.2 °F 6.1 °F 5.0 °F 73% 29.91 in 10.0 mi NE 3.5 mph - N/A   Clear
2:36 PM 12.2 °F 4.3 °F 6.8 °F 79% 29.91 in 10.0 mi NE 4.6 mph - N/A   Clear
2:56 PM 12.2 °F 4.3 °F 6.8 °F 79% 29.91 in 10.0 mi NE 4.6 mph - N/A   Clear
3:16 PM 12.2 °F 2.9 °F 6.8 °F 79% 29.91 in 10.0 mi NE 5.8 mph - N/A   Clear
3:36 PM 12.2 °F 1.7 °F 6.8 °F 79% 29.91 in 10.0 mi NE 6.9 mph - N/A   Clear
3:56 PM 12.2 °F - 6.8 °F 79% 29.92 in 10.0 mi Calm Calm - N/A   Clear
4:16 PM 12.2 °F - 6.8 °F 79% 29.92 in 10.0 mi Calm Calm - N/A   Clear
4:36 PM 12.2 °F 6.1 °F 6.8 °F 79% 29.92 in 10.0 mi NNE 3.5 mph - N/A   Clear
4:56 PM 12.2 °F 4.3 °F 6.8 °F 79% 29.93 in 10.0 mi North 4.6 mph - N/A   Clear
5:16 PM 10.4 °F 2.2 °F 6.8 °F 85% 29.93 in 10.0 mi North 4.6 mph - N/A   Clear
5:36 PM 10.4 °F 4.0 °F 5.0 °F 79% 29.94 in 10.0 mi NNE 3.5 mph - N/A   Clear
5:56 PM 8.6 °F 2.0 °F 5.0 °F 85% 29.95 in 10.0 mi North 3.5 mph - N/A   Clear
6:16 PM 8.6 °F 0.1 °F 6.8 °F 92% 29.95 in 10.0 mi NNE 4.6 mph - N/A   Clear
6:36 PM 6.8 °F -3.5 °F 3.2 °F 85% 29.95 in 9.0 mi NNE 5.8 mph - N/A   Clear
6:56 PM 6.8 °F -2.0 °F 5.0 °F 92% 29.96 in 10.0 mi NNW 4.6 mph - N/A   Clear
7:16 PM 6.8 °F -3.5 °F 3.2 °F 85% 29.96 in 10.0 mi North 5.8 mph - N/A   Clear
7:36 PM 5.0 °F -5.6 °F 1.4 °F 85% 29.96 in 10.0 mi North 5.8 mph - N/A   Clear
7:56 PM 5.0 °F -6.9 °F 3.2 °F 92% 29.97 in 10.0 mi NNE 6.9 mph - N/A   Clear
8:16 PM 3.2 °F -9.1 °F -0.4 °F 85% 29.98 in 10.0 mi North 6.9 mph - N/A   Clear
8:36 PM 3.2 °F -9.1 °F -0.4 °F 85% 29.98 in 10.0 mi North 6.9 mph - N/A   Clear
8:56 PM 3.2 °F -7.8 °F -0.4 °F 85% 29.99 in 10.0 mi North 5.8 mph - N/A   Clear
9:16 PM 3.2 °F -9.1 °F 1.4 °F 92% 29.99 in 10.0 mi North 6.9 mph - N/A   Clear
9:36 PM 1.4 °F -11.3 °F -0.4 °F 92% 29.99 in 10.0 mi North 6.9 mph - N/A   Clear
9:56 PM 1.4 °F -12.5 °F -2.2 °F 85% 30.00 in 10.0 mi NNE 8.1 mph - N/A   Clear
10:16 PM 3.2 °F -10.3 °F 1.4 °F 92% 30.00 in 10.0 mi North 8.1 mph - N/A   Clear
10:36 PM 3.2 °F -9.1 °F 1.4 °F 92% 30.01 in 10.0 mi North 6.9 mph - N/A   Clear
10:56 PM 1.4 °F -11.3 °F -0.4 °F 92% 30.02 in 10.0 mi North 6.9 mph - N/A   Clear
11:16 PM 3.2 °F -10.3 °F -0.4 °F 85% 30.02 in 10.0 mi North 8.1 mph - N/A   Clear
11:36 PM 1.4 °F -13.5 °F -0.4 °F 92% 30.03 in 10.0 mi North 9.2 mph - N/A   Clear
11:56 PM 3.2 °F -11.3 °F 1.4 °F 92% 30.04 in 10.0 mi North 9.2 mph - N/A   Clear